Change the Weather History Date:

Friday, August 2, 2013

  Actual Average Record
Temperature  
Mean Temperature 87 °F 83 °F  
Max Temperature 100 °F 93 °F 107 °F (1998)
Min Temperature 74 °F 73 °F 63 °F (1965)
Cooling Degree Days 22 18  
Month to date cooling degree days 43 36  
Year to date cooling degree days 1444 1482  
Since 1 June cooling degree days 1051 1028  
Growing Degree Days 36 (Base 50)    
Moisture  
Dew Point 74 °F    
Average Humidity 67    
Maximum Humidity 100    
Minimum Humidity 33    
Precipitation  
Precipitation 0.00 in 0.11 in 2.00 in (1912)
Month to date precipitation T 0.22  
Year to date precipitation 32.91 32.95  
Sea Level Pressure  
Sea Level Pressure 29.95 in    
Wind  
Wind Speed 2 mph (ESE)    
Max Wind Speed 12 mph    
Max Gust Speed 14 mph    
Visibility 9 miles    
Events      
T = Trace of Precipitation, MM = Missing Value Source: NWS Daily Summary

Daily Weather History Graph

Daily Weather History Graph

Search for Another Location

Airport or City:

Trip Planner

Search our weather history database for the weather conditions in past years. The results will help you decide how hot, cold, wet, or windy it might be!

Date:

Astronomy

Aug. 02, 2013 Rise Set
Actual Time 6:27 AM CDT 8:04 PM CDT
Civil Twilight 6:01 AM CDT 8:31 PM CDT
Nautical Twilight 5:29 AM CDT 9:02 PM CDT
Astronomical Twilight 4:56 AM CDT 9:35 PM CDT
Moon 2:51 AM CDT 5:00 PM CDT
Length of Visible Light 14h 29m
Length of Day
13h 37m
Waning Crescent, 15% of the Moon is Illuminated
Aug 2
Waning Crescent
Aug 6
New
Aug 14
First Quarter
Aug 20
Full
Aug 28
Last Quarter

Hourly Weather History & Observations

Time (CDT) Temp. Heat Index Dew Point Humidity Pressure Visibility Wind Dir Wind Speed Gust Speed Precip Events Conditions
12:53 AM 78.1 °F - 75.9 °F 93% 29.95 in 8.0 mi Calm Calm - N/A   Clear
1:53 AM 78.1 °F - 75.9 °F 93% 29.94 in 8.0 mi Calm Calm - N/A   Clear
2:53 AM 77.0 °F - 75.0 °F 94% 29.93 in 6.0 mi Calm Calm - N/A   Clear
3:53 AM 75.0 °F - 73.9 °F 96% 29.94 in 6.0 mi Calm Calm - N/A   Clear
4:53 AM 75.0 °F - 73.9 °F 96% 29.94 in 6.0 mi Calm Calm - N/A   Clear
5:53 AM 73.9 °F - 73.0 °F 97% 29.96 in 6.0 mi Calm Calm - N/A   Clear
6:53 AM 73.9 °F - 73.0 °F 97% 29.97 in 4.0 mi Calm Calm - N/A   Clear
7:53 AM 77.0 °F - 73.0 °F 88% 29.97 in 8.0 mi Calm Calm - N/A   Partly Cloudy
8:00 AM 78.8 °F - 73.4 °F 83% 29.96 in 8.0 mi Calm Calm - N/A   Partly Cloudy
8:53 AM 82.9 °F 90.8 °F 75.9 °F 79% 29.97 in 9.0 mi Calm Calm - N/A   Clear
9:53 AM 88.0 °F 98.5 °F 75.9 °F 67% 29.97 in 9.0 mi Calm Calm - N/A   Clear
10:53 AM 89.1 °F 101.4 °F 77.0 °F 67% 29.97 in 8.0 mi WSW 3.5 mph - N/A   Clear
11:53 AM 91.9 °F 103.9 °F 75.9 °F 59% 29.98 in 10.0 mi South 3.5 mph - N/A   Clear
12:53 PM 95.0 °F 106.7 °F 75.0 °F 52% 29.97 in 10.0 mi Calm Calm - N/A   Partly Cloudy
1:53 PM 96.1 °F 105.6 °F 73.0 °F 47% 29.96 in 10.0 mi Calm Calm - N/A   Scattered Clouds
2:53 PM 98.1 °F 107.2 °F 72.0 °F 43% 29.94 in 10.0 mi Variable 3.5 mph - N/A   Clear
3:53 PM 99.0 °F 103.5 °F 66.9 °F 35% 29.92 in 10.0 mi North 3.5 mph - N/A   Clear
4:53 PM 99.0 °F 102.3 °F 64.9 °F 33% 29.92 in 10.0 mi Calm Calm - N/A   Clear
5:53 PM 93.9 °F 104.0 °F 73.9 °F 52% 29.92 in 10.0 mi East 9.2 mph - N/A   Clear
6:53 PM 91.9 °F 101.3 °F 73.9 °F 55% 29.91 in 10.0 mi ENE 3.5 mph - N/A   Clear
7:53 PM 89.1 °F 99.1 °F 75.0 °F 63% 29.93 in 10.0 mi ENE 3.5 mph - N/A   Clear
8:53 PM 84.9 °F 94.1 °F 75.9 °F 74% 29.94 in 10.0 mi Calm Calm - N/A   Clear
9:53 PM 84.9 °F 93.3 °F 75.0 °F 72% 29.96 in 10.0 mi Calm Calm - N/A   Clear
10:53 PM 82.0 °F 88.6 °F 75.0 °F 79% 29.98 in 10.0 mi SSE 5.8 mph - N/A   Clear
11:53 PM 80.1 °F 85.4 °F 75.9 °F 87% 29.99 in 10.0 mi SSE 3.5 mph - N/A   Clear